Location: Monteux
(44.0348°N, 4.9972°E)
Time: 17:18:23
(UTC+00:00)

Landsat 5 - Pass Details

Date: 30 November 2020
Orbit: 528 x 654 km, 98.2° (Epoch: 22 January)

Event Time Altitude Azimuth Distance (km) Brightness Sun altitude
Rises 16:46:10 0° 12° (NNE) 2,941 6.7 -7.7°
Reaches altitude 10° 16:48:21 10° 11° (NNE) 2,042 5.9 -8.1°
Maximum altitude 16:52:49 82° 285° (WNW) 662 3.8 -8.8°
Drops below altitude 10° 16:57:20 10° 198° (SSW) 2,056 6.8 -9.6°
Sets 16:59:32 0° 198° (SSW) 2,963 7.6 -9.9°
